Regional Weather Roundup
Issued by NWS

Home | Current Version | Previous Version | Graphics & Text | Print | Product List | Glossary On
Versions: 1 2 3 4 5 6 7 8 9 10 11 12 13 14 15 16 17 18 19 20 21 22 23 24 25 26 27
000
ASUS45 KTFX 231910
RWRMT
MONTANA REGIONAL WEATHER ROUNDUP
NATIONAL WEATHER SERVICE GREAT FALLS MT
100 PM MDT TUE MAY 23 2017

NOTE: "FAIR" INDICATES FEW OR NO CLOUDS BELOW 12000 FEET WITH NO
SIGNIFICANT WEATHER AND/OR OBSTRUCTIONS TO VISIBILITY.

MTZ001>007-043-232000-
WEST OF THE DIVIDE

CITY           SKY/WX    TMP DP  RH WIND       PRES   REMARKS
KALISPELL      SUNNY     74  45  35 S10       29.98F
MISSOULA       SUNNY     72  45  37 S3        30.03F
BUTTE          SUNNY     70  36  28 VRB5      30.13F
MULLAN PASS    SUNNY     62  35  36 VRB7      30.14F
ANACONDA         N/A     73  37  27 S15       30.08F
DEER LODGE       N/A     72  41  33 E6        30.10F
EUREKA           N/A     73  48  40 S5        29.94F
HAMILTON         N/A     75  45  33 N5        30.03F
PLAINS           N/A     76  53  44 CALM      29.98F
RONAN            N/A     75  49  39 CALM      30.05F
THOMPSON FALLS   N/A     79  52  38 CALM      30.00F
$$

MTZ008-052>055-232000-
SOUTHWEST MONTANA

CITY           SKY/WX    TMP DP  RH WIND       PRES   REMARKS
BOZEMAN        SUNNY     70  41  34 VRB5      30.10F
DILLON         SUNNY     70  38  31 S6        30.12F
W YELLOWSTONE  SUNNY     63  34  34 SW8       30.21F
ENNIS          SUNNY     68  37  32 SW6       30.18F
THREE FORKS      N/A     70  44  38 NE2       30.08F
TWIN BRIDGES     N/A     68  39  34 S3        30.10F
$$

MTZ009-010-012-014-046-048-049-054-232000-
EAST SLOPES AND CENTRAL MONTANA

CITY           SKY/WX    TMP DP  RH WIND       PRES   REMARKS
CUT BANK       MOSUNNY   77  39  25 SW13G20   29.95F
GREAT FALLS    SUNNY     76  42  29 SW10      29.99F
HELENA         SUNNY     73  45  36 E9        30.04F
CHOTEAU          N/A     77  39  25 SW12      29.99F
CONRAD           N/A     78  58  50 SE6       29.99F
$$

MTZ011-013-016-021-045-047-050-051-232000-
NORTH CENTRAL MONTANA

CITY           SKY/WX    TMP DP  RH WIND       PRES   REMARKS
HAVRE          SUNNY     77  35  21 S7        29.95F
LEWISTOWN      SUNNY     69  38  32 CALM      30.05F
N BAR RANCH      N/A     66  41  39 S15       30.10F
CHINOOK          N/A     73  34  23 E6        29.96F
$$

MTZ017>020-022>027-061-062-232000-
NORTHEAST MONTANA

CITY           SKY/WX    TMP DP  RH WIND       PRES   REMARKS
GLASGOW        MOSUNNY   70  26  19 SE12G20   30.06F
JORDAN           N/A     69  31  24 S9        30.06F
SIDNEY         SUNNY     69  31  24 E10       30.09F
WOLF POINT     SUNNY     72  28  19 CALM      30.06F
MALTA          SUNNY     70  32  24 S12       30.02F
PLENTYWOOD       N/A     68  32  26 SW6       30.06F
POPLAR           N/A     70  28  21 W3        30.07F
SCOBEY           N/A     69  33  26 SE2       30.04F
$$

MTZ028>42-056>058-232000-
SOUTHCENTRAL AND SOUTHEAST MONTANA

CITY           SKY/WX    TMP DP  RH WIND       PRES   REMARKS
BAKER          MOSUNNY   64  34  32 VRB7      30.12F
BILLINGS       MOSUNNY   68  37  32 SE9       30.10F
LIVINGSTON     SUNNY     72  43  35 SW13      30.09F
MILES CITY     SUNNY     69  31  24 SE9       30.10F
BIG TIMBER     SUNNY     68  41  37 W6        30.11F
EKALAKA          N/A     62  34  35 NW9       30.10F
FORSYTH          N/A     66  30  26 SE6       30.09F
LAUREL           N/A     67  38  34 S1        30.08F
ROUNDUP          N/A     69  37  30 SE8       29.99F
$$

REGIONAL REPORTS...DAKOTAS

CITY           SKY/WX    TMP DP  RH WIND       PRES   REMARKS
WILLISTON      SUNNY     70  32  24 E6        30.10F
MINOT          MOSUNNY   66  33  29 N9G22     30.08F
DICKINSON      MOSUNNY   62  33  33 N15G29    30.10F
BEACH            N/A     64  30  27 N8G16     30.14F
TIOGA            N/A     64  28  25 VRB6      30.11F
WATFORD CITY     N/A     66  32  28 NE8G14    30.10F
BISMARCK       PTSUNNY   63  35  35 NE20G29   30.07F
GRAND FORKS    PTSUNNY   62  45  53 NE18      29.99F
FARGO          CLOUDY    54  46  74 N16G25    29.95F
BUFFALO SD       N/A     64  34  32 N16G25    30.05F
RAPID CITY     CLOUDY    59  35  40 N17G28    30.10F
$$

REGIONAL REPORTS...WYOMING/IDAHO/WASHINGTON

CITY           SKY/WX    TMP DP  RH WIND       PRES   REMARKS
GILLETTE       MOSUNNY   61  35  37 N10       30.15F
SHERIDAN       MOSUNNY   65  39  38 E6        30.15F
BUFFALO WY     SUNNY     60  34  37 NE8       30.18F
CODY           SUNNY     65  31  28 NE7       30.16
YELLOWSTONE LA   N/A     50  33  52 VRB3      30.29F
IDAHO FALLS    SUNNY     70  37  29 NE5       30.17F
SALMON         SUNNY     70  45  40 N5        30.07F
BOISE          SUNNY     79  41  25 VRB3      30.08F
SPOKANE        MOSUNNY   79  43  27 SW12      29.98F
$$

REGIONAL REPORTS...ALBERTA

CITY           SKY/WX    TMP DP  RH WIND       PRES   REMARKS
EDMONTON       MOSUNNY   81  45  28 SW9       29.68F
CALGARY        PTSUNNY   75  36  23 S12       29.82F
LETHBRIDGE     PTSUNNY   79  45  29 W18G25    29.85F
MEDICINE HAT   PTSUNNY   79  41  25 S22G31    29.85F
WATERTON GATE    N/A     72  39  30 SW21G30     N/A
MILK RIVER       N/A     79  43  27 SW7         N/A
$$

REGIONAL REPORTS...SASKATCHEWAN

CITY           SKY/WX    TMP DP  RH WIND       PRES   REMARKS
REGINA         PTSUNNY   72  28  20 SW7G18    30.01F
SASKATOON      PTSUNNY   72  34  25 S20       29.92F
VAL MARIE        N/A     66  28  24 S16G22      N/A
ROCKGLEN         N/A     68  32  26 S14G22      N/A
$$




USA.gov is the U.S. government's official web portal to all federal, state and local government web resources and services.